,,,PA_Meas_PMT16A,,PR_Meas_QMR101_102,,RH_Meas_QMH101,,SR_Meas_QMS101,,TA_Meas_QMH101,,GenWind,,GenWind,
date,time,status,PA,status,PR,status,RH,status,SR,status,TA,status,DirAvg,status,SpdAvg,
2012-04-24, 00:00:05,VALID,1003.84,VALID,0,VALID,86.5344,VALID,0,VALID,25.6895,VALID,332,VALID,0.764453,
2012-04-24, 00:01:05,VALID,1003.82,VALID,0,VALID,86.5191,VALID,0,VALID,25.6681,VALID,334,VALID,0.829687,
2012-04-24, 00:02:05,VALID,1003.82,VALID,0,VALID,86.5496,VALID,0,VALID,25.6895,VALID,330,VALID,0.276563,
2012-04-24, 00:03:05,VALID,1003.78,VALID,0,VALID,86.6031,VALID,0,VALID,25.6895,VALID,2,VALID,0.754297,
2012-04-24, 00:04:05,VALID,1003.75,VALID,0,VALID,86.6259,VALID,0,VALID,25.6895,VALID,360,VALID,0.605469,
2012-04-24, 00:05:05,VALID,1003.75,VALID,0,VALID,86.6488,VALID,0,VALID,25.6681,VALID,342,VALID,0.646484,
2012-04-24, 00:06:05,VALID,1003.74,VALID,0,VALID,86.7022,VALID,0,VALID,25.6681,VALID,355,VALID,0.655859,
2012-04-24, 00:07:05,VALID,1003.72,VALID,0,VALID,86.7099,VALID,0,VALID,25.67,VALID,350,VALID,0.729297,
2012-04-24, 00:08:05,VALID,1003.7,VALID,0,VALID,86.7785,VALID,0,VALID,25.6506,VALID,352,VALID,0.338281,
2012-04-24, 00:09:05,VALID,1003.69,VALID,0,VALID,86.8853,VALID,0,VALID,25.67,VALID,350,VALID,0.217187,
2012-04-24, 00:10:05,VALID,1003.69,VALID,0,VALID,86.9921,VALID,0,VALID,25.6506,VALID,355,VALID,0.689062,
2012-04-24, 00:11:05,VALID,1003.7,VALID,0,VALID,86.9311,VALID,0,VALID,25.6292,VALID,348,VALID,0.647656,
2012-04-24, 00:12:05,VALID,1003.64,VALID,0,VALID,86.8395,VALID,0,VALID,25.6292,VALID,340,VALID,0.164453,
2012-04-24, 00:13:05,VALID,1003.6,VALID,0,VALID,86.8929,VALID,0,VALID,25.6506,VALID,341,VALID,0.317969,
2012-04-24, 00:14:05,VALID,1003.57,VALID,0,VALID,86.9082,VALID,0,VALID,25.6292,VALID,349,VALID,0.393359,
2012-04-24, 00:15:05,VALID,1003.54,VALID,0,VALID,86.9235,VALID,0,VALID,25.6097,VALID,359,VALID,0.767187,
2012-04-24, 00:16:05,VALID,1003.54,VALID,0,VALID,86.9387,VALID,0,VALID,25.6506,VALID,360,VALID,0.398047,
2012-04-24, 00:17:05,VALID,1003.53,VALID,0,VALID,86.9616,VALID,0,VALID,25.6292,VALID,360,VALID,0,
2012-04-24, 00:18:05,VALID,1003.54,VALID,0,VALID,87.0074,VALID,0,VALID,25.6097,VALID,360,VALID,0.240625,
2012-04-24, 00:19:05,VALID,1003.53,VALID,0,VALID,87.0303,VALID,0,VALID,25.6097,VALID,348,VALID,0.313281,
2012-04-24, 00:20:05,VALID,1003.5,VALID,0,VALID,87.0837,VALID,0,VALID,25.6116,VALID,348,VALID,0.389062,
2012-04-24, 00:21:05,VALID,1003.48,VALID,0,VALID,87.0455,VALID,0,VALID,25.5902,VALID,348,VALID,0.289453,
2012-04-24, 00:22:05,VALID,1003.46,VALID,0,VALID,87.0913,VALID,0,VALID,25.6116,VALID,348,VALID,0.235547,
2012-04-24, 00:23:05,VALID,1003.44,VALID,0,VALID,87.221,VALID,0,VALID,25.6116,VALID,348,VALID,0.551562,
2012-04-24, 00:24:05,VALID,1003.43,VALID,0,VALID,87.1905,VALID,0,VALID,25.6116,VALID,345,VALID,0.102344,
2012-04-24, 00:25:05,VALID,1003.4,VALID,0,VALID,87.3125,VALID,0,VALID,25.5707,VALID,268,VALID,0.419531,
2012-04-24, 00:26:05,VALID,1003.36,VALID,0,VALID,87.3125,VALID,0,VALID,25.5921,VALID,331,VALID,1.01602,
2012-04-24, 00:27:05,VALID,1003.36,VALID,0,VALID,87.2439,VALID,0,VALID,25.6116,VALID,336,VALID,0.325,
2012-04-24, 00:28:05,VALID,1003.35,VALID,0,VALID,87.1523,VALID,0,VALID,25.6097,VALID,275,VALID,0.714844,
2012-04-24, 00:29:05,VALID,1003.31,VALID,0,VALID,87.0532,VALID,0,VALID,25.6311,VALID,15,VALID,0.266797,
2012-04-24, 00:30:05,VALID,1003.3,VALID,0,VALID,86.9998,VALID,0,VALID,25.6097,VALID,14,VALID,0.258594,
2012-04-24, 00:31:05,VALID,1003.27,VALID,0,VALID,87.1371,VALID,0,VALID,25.5902,VALID,298,VALID,0.158594,
2012-04-24, 00:32:05,VALID,1003.25,VALID,0,VALID,87.1523,VALID,0,VALID,25.6116,VALID,290,VALID,0.137891,
2012-04-24, 00:33:05,VALID,1003.26,VALID,0,VALID,87.2057,VALID,0,VALID,25.5921,VALID,309,VALID,0.379297,
2012-04-24, 00:34:05,VALID,1003.23,VALID,0,VALID,87.3125,VALID,0,VALID,25.5727,VALID,309,VALID,0.114063,
2012-04-24, 00:35:05,VALID,1003.21,VALID,0,VALID,87.3278,VALID,0,VALID,25.5513,VALID,323,VALID,0.245312,
2012-04-24, 00:36:05,VALID,1003.2,VALID,0,VALID,87.3202,VALID,0,VALID,25.5532,VALID,347,VALID,0.198047,
2012-04-24, 00:37:05,VALID,1003.21,VALID,0,VALID,87.3507,VALID,0,VALID,25.5123,VALID,347,VALID,0,
2012-04-24, 00:38:05,VALID,1003.18,VALID,0,VALID,87.3888,VALID,0,VALID,25.5532,VALID,347,VALID,0.210547,
2012-04-24, 00:39:05,VALID,1003.18,VALID,0,VALID,87.4117,VALID,0.0815089,VALID,25.5104,VALID,348,VALID,0.316406,
2012-04-24, 00:40:05,VALID,1003.18,VALID,0,VALID,87.4956,VALID,0.0815089,VALID,25.5104,VALID,349,VALID,0.45625,
2012-04-24, 00:41:05,VALID,1003.16,VALID,0,VALID,87.4651,VALID,0,VALID,25.5123,VALID,355,VALID,0.484766,
2012-04-24, 00:42:05,VALID,1003.15,VALID,0,VALID,87.4193,VALID,0.0815089,VALID,25.4909,VALID,343,VALID,0.340625,
2012-04-24, 00:43:05,VALID,1003.13,VALID,0,VALID,87.3888,VALID,0.0815089,VALID,25.5318,VALID,335,VALID,0.662109,
2012-04-24, 00:44:05,VALID,1003.11,VALID,0,VALID,87.2896,VALID,0,VALID,25.5318,VALID,351,VALID,0.133203,
2012-04-24, 00:45:05,VALID,1003.08,VALID,0,VALID,87.3507,VALID,0,VALID,25.4909,VALID,346,VALID,0.591406,
2012-04-24, 00:46:05,VALID,1003.05,VALID,0,VALID,87.3965,VALID,0.0815089,VALID,25.5318,VALID,345,VALID,0.315234,
2012-04-24, 00:47:05,VALID,1003.01,VALID,0,VALID,87.4117,VALID,0.0815089,VALID,25.5104,VALID,347,VALID,0.443359,
2012-04-24, 00:48:05,VALID,1002.97,VALID,0,VALID,87.4346,VALID,0.0815089,VALID,25.4909,VALID,348,VALID,0.0882813,
2012-04-24, 00:49:05,VALID,1002.95,VALID,0,VALID,87.5109,VALID,0.0815089,VALID,25.5123,VALID,350,VALID,0.219141,
2012-04-24, 00:50:05,VALID,1002.94,VALID,0,VALID,87.4804,VALID,0.0815089,VALID,25.4714,VALID,350,VALID,0,
2012-04-24, 00:51:05,VALID,1002.9,VALID,0,VALID,87.6711,VALID,0.0815089,VALID,25.452,VALID,350,VALID,0,
2012-04-24, 00:52:05,VALID,1002.89,VALID,0,VALID,87.7932,VALID,0.0815089,VALID,25.4344,VALID,350,VALID,0,
2012-04-24, 00:53:05,VALID,1002.89,VALID,0,VALID,87.8847,VALID,0,VALID,25.4344,VALID,350,VALID,0,
2012-04-24, 00:54:05,VALID,1002.86,VALID,0,VALID,88.0144,VALID,0.0815089,VALID,25.3955,VALID,350,VALID,0.0917969,
2012-04-24, 00:55:05,VALID,1002.87,VALID,0,VALID,88.0907,VALID,0.0815089,VALID,25.3741,VALID,347,VALID,0.261328,
2012-04-24, 00:56:05,VALID,1002.85,VALID,0,VALID,88.2127,VALID,0,VALID,25.4169,VALID,347,VALID,0,
2012-04-24, 00:57:05,VALID,1002.82,VALID,0,VALID,88.2967,VALID,0.0815089,VALID,25.376,VALID,347,VALID,0.497266,
2012-04-24, 00:58:05,VALID,1002.81,VALID,0,VALID,88.2814,VALID,0,VALID,25.3546,VALID,347,VALID,0.0550781,
2012-04-24, 00:59:05,VALID,1002.8,VALID,0,VALID,88.3729,VALID,0,VALID,25.376,VALID,347,VALID,0,
2012-04-24, 01:00:05,VALID,1002.8,VALID,0,VALID,88.3882,VALID,0.0815089,VALID,25.3955,VALID,347,VALID,0,
2012-04-24, 01:01:05,VALID,1002.77,VALID,0,VALID,88.4874,VALID,0,VALID,25.3565,VALID,347,VALID,0,
2012-04-24, 01:02:05,VALID,1002.76,VALID,0,VALID,88.4798,VALID,0,VALID,25.3584,VALID,347,VALID,0.0015625,
2012-04-24, 01:03:05,VALID,1002.71,VALID,0,VALID,88.4645,VALID,0,VALID,25.339,VALID,347,VALID,0.258203,
2012-04-24, 01:04:05,VALID,1002.72,VALID,0,VALID,88.5484,VALID,0,VALID,25.3584,VALID,315,VALID,0.157422,
2012-04-24, 01:05:05,VALID,1002.66,VALID,0,VALID,88.6171,VALID,0,VALID,25.3584,VALID,347,VALID,0.507422,
2012-04-24, 01:06:05,VALID,1002.67,VALID,0,VALID,88.5179,VALID,0,VALID,25.3584,VALID,347,VALID,0.340625,
2012-04-24, 01:07:05,VALID,1002.65,VALID,0,VALID,88.5332,VALID,0,VALID,25.3779,VALID,340,VALID,0.588672,
2012-04-24, 01:08:05,VALID,1002.65,VALID,0,VALID,88.3882,VALID,0,VALID,25.3955,VALID,343,VALID,0.652734,
2012-04-24, 01:09:05,VALID,1002.62,VALID,0,VALID,88.2738,VALID,0,VALID,25.4363,VALID,331,VALID,0.503906,
2012-04-24, 01:10:05,VALID,1002.62,VALID,0,VALID,88.1822,VALID,0,VALID,25.4363,VALID,350,VALID,0.462891,
2012-04-24, 01:11:05,VALID,1002.6,VALID,0,VALID,88.1136,VALID,0,VALID,25.4558,VALID,350,VALID,0.478906,
2012-04-24, 01:12:05,VALID,1002.59,VALID,0,VALID,88.1212,VALID,0,VALID,25.4344,VALID,349,VALID,0.628516,
2012-04-24, 01:13:05,VALID,1002.58,VALID,0,VALID,88.0068,VALID,0,VALID,25.4558,VALID,349,VALID,0.0820313,
2012-04-24, 01:14:05,VALID,1002.6,VALID,0,VALID,88.022,VALID,0,VALID,25.4363,VALID,349,VALID,0.0511719,
2012-04-24, 01:15:05,VALID,1002.57,VALID,0,VALID,88.1593,VALID,0,VALID,25.4169,VALID,349,VALID,0.340234,
2012-04-24, 01:16:05,VALID,1002.57,VALID,0,VALID,88.2356,VALID,0,VALID,25.3955,VALID,349,VALID,0.426172,
2012-04-24, 01:17:05,VALID,1002.55,VALID,0,VALID,88.2661,VALID,0,VALID,25.4383,VALID,349,VALID,0.341406,
2012-04-24, 01:18:05,VALID,1002.53,VALID,0,VALID,88.3501,VALID,0,VALID,25.3779,VALID,348,VALID,0.379687,
2012-04-24, 01:19:05,VALID,1002.54,VALID,0,VALID,88.3806,VALID,0,VALID,25.376,VALID,344,VALID,0.451172,
2012-04-24, 01:20:05,VALID,1002.52,VALID,0,VALID,88.3653,VALID,0,VALID,25.3565,VALID,344,VALID,0.268359,
2012-04-24, 01:21:05,VALID,1002.52,VALID,0,VALID,88.434,VALID,0,VALID,25.337,VALID,344,VALID,0.0964844,
2012-04-24, 01:22:05,VALID,1002.51,VALID,0,VALID,88.5789,VALID,0,VALID,25.339,VALID,345,VALID,0.499219,
2012-04-24, 01:23:05,VALID,1002.49,VALID,0,VALID,88.6857,VALID,0,VALID,25.339,VALID,347,VALID,0.470313,
2012-04-24, 01:24:05,VALID,1002.5,VALID,0,VALID,88.6628,VALID,0.0815089,VALID,25.339,VALID,347,VALID,0.34375,
2012-04-24, 01:25:05,VALID,1002.48,VALID,0,VALID,88.7697,VALID,0,VALID,25.2981,VALID,347,VALID,0.551562,
2012-04-24, 01:26:05,VALID,1002.45,VALID,0,VALID,88.8536,VALID,0,VALID,25.2981,VALID,347,VALID,0.515234,
2012-04-24, 01:27:05,VALID,1002.44,VALID,0,VALID,88.9451,VALID,0.0815089,VALID,25.2806,VALID,346,VALID,0.803906,
2012-04-24, 01:28:05,VALID,1002.43,VALID,0,VALID,88.9604,VALID,0,VALID,25.2397,VALID,349,VALID,0.322656,
2012-04-24, 01:29:05,VALID,1002.43,VALID,0,VALID,89.029,VALID,0,VALID,25.2202,VALID,348,VALID,0.228906,
2012-04-24, 01:30:05,VALID,1002.39,VALID,0,VALID,89.0748,VALID,0.0815089,VALID,25.2202,VALID,348,VALID,0,
2012-04-24, 01:31:05,VALID,1002.35,VALID,0,VALID,89.0901,VALID,0,VALID,25.1813,VALID,348,VALID,0,
2012-04-24, 01:32:05,VALID,1002.34,VALID,0,VALID,89.2579,VALID,0.0815089,VALID,25.1813,VALID,348,VALID,0.00195313,
2012-04-24, 01:33:05,VALID,1002.31,VALID,0,VALID,89.4791,VALID,0.0815089,VALID,25.1813,VALID,348,VALID,0.380469,
2012-04-24, 01:34:05,VALID,1002.29,VALID,0,VALID,89.5478,VALID,0.0815089,VALID,25.1599,VALID,348,VALID,0,
2012-04-24, 01:35:05,VALID,1002.24,VALID,0,VALID,89.6546,VALID,0.0815089,VALID,25.1813,VALID,348,VALID,0,
2012-04-24, 01:36:05,VALID,1002.24,VALID,0,VALID,89.6088,VALID,0,VALID,25.1599,VALID,348,VALID,0,
2012-04-24, 01:37:05,VALID,1002.21,VALID,0,VALID,89.6699,VALID,0,VALID,25.1813,VALID,348,VALID,0.498828,
2012-04-24, 01:38:05,VALID,1002.18,VALID,0,VALID,89.647,VALID,0.0815089,VALID,25.1813,VALID,331,VALID,0.0695312,
2012-04-24, 01:39:05,VALID,1002.17,VALID,0,VALID,89.6393,VALID,0,VALID,25.2027,VALID,336,VALID,0.614062,
2012-04-24, 01:40:05,VALID,1002.18,VALID,0,VALID,89.6241,VALID,0,VALID,25.2027,VALID,340,VALID,0.219922,
2012-04-24, 01:41:05,VALID,1002.18,VALID,0,VALID,89.6622,VALID,0,VALID,25.2027,VALID,344,VALID,0.425781,
2012-04-24, 01:42:05,VALID,1002.14,VALID,0,VALID,89.647,VALID,0,VALID,25.2221,VALID,345,VALID,0.683594,
2012-04-24, 01:43:05,VALID,1002.14,VALID,0,VALID,89.6241,VALID,0,VALID,25.2221,VALID,347,VALID,0.438281,
2012-04-24, 01:44:05,VALID,1002.16,VALID,0,VALID,89.5783,VALID,0,VALID,25.2416,VALID,347,VALID,0.357422,
2012-04-24, 01:45:05,VALID,1002.14,VALID,0,VALID,89.5859,VALID,0,VALID,25.2221,VALID,347,VALID,0.436719,
2012-04-24, 01:46:05,VALID,1002.16,VALID,0,VALID,89.5859,VALID,0,VALID,25.2202,VALID,344,VALID,0.578516,
2012-04-24, 01:47:05,VALID,1002.1,VALID,0,VALID,89.6165,VALID,0,VALID,25.2416,VALID,340,VALID,0.676172,
2012-04-24, 01:48:05,VALID,1002.11,VALID,0,VALID,89.7004,VALID,0,VALID,25.2221,VALID,344,VALID,0.353125,
2012-04-24, 01:49:05,VALID,1002.11,VALID,0,VALID,89.8224,VALID,0,VALID,25.2202,VALID,355,VALID,0.801562,
2012-04-24, 01:50:05,VALID,1002.12,VALID,0,VALID,89.9064,VALID,0,VALID,25.2397,VALID,350,VALID,1.05703,
2012-04-24, 01:51:05,VALID,1002.1,VALID,0,VALID,89.7996,VALID,0,VALID,25.2806,VALID,341,VALID,0.499609,
2012-04-24, 01:52:05,VALID,1002.09,VALID,0,VALID,89.708,VALID,0,VALID,25.3,VALID,342,VALID,0.594922,
2012-04-24, 01:53:05,VALID,1002.07,VALID,0,VALID,89.6241,VALID,0,VALID,25.3195,VALID,343,VALID,0.462109,
2012-04-24, 01:54:05,VALID,1002.07,VALID,0,VALID,89.5707,VALID,0,VALID,25.339,VALID,344,VALID,0.555469,
2012-04-24, 01:55:05,VALID,1002.05,VALID,0,VALID,89.5631,VALID,0,VALID,25.339,VALID,329,VALID,0.796484,
2012-04-24, 01:56:05,VALID,1002.03,VALID,0,VALID,89.4715,VALID,0,VALID,25.3584,VALID,339,VALID,0.197656,
2012-04-24, 01:57:05,VALID,1002.01,VALID,0,VALID,89.4791,VALID,0,VALID,25.3565,VALID,5,VALID,0.46875,
2012-04-24, 01:58:05,VALID,1002,VALID,0,VALID,89.4868,VALID,0,VALID,25.4169,VALID,333,VALID,1.13555,
2012-04-24, 01:59:05,VALID,1001.99,VALID,0,VALID,89.3189,VALID,0,VALID,25.3955,VALID,354,VALID,0.553906,
2012-04-24, 02:00:05,VALID,1001.96,VALID,0,VALID,89.1892,VALID,0,VALID,25.4558,VALID,346,VALID,0.686719,
2012-04-24, 02:01:05,VALID,1001.99,VALID,0,VALID,89.0901,VALID,0,VALID,25.4344,VALID,6,VALID,0.760938,
2012-04-24, 02:02:05,VALID,1001.94,VALID,0,VALID,88.9985,VALID,0,VALID,25.4344,VALID,360,VALID,0.484375,
2012-04-24, 02:03:04,VALID,1001.93,VALID,0,VALID,88.9299,VALID,0,VALID,25.4344,VALID,355,VALID,0.0242187,
2012-04-24, 02:04:04,VALID,1001.95,VALID,0,VALID,88.8841,VALID,0,VALID,25.4344,VALID,356,VALID,0.170312,
2012-04-24, 02:05:04,VALID,1001.9,VALID,0,VALID,88.9299,VALID,0,VALID,25.4558,VALID,278,VALID,0.456641,
2012-04-24, 02:06:04,VALID,1001.91,VALID,0,VALID,88.8841,VALID,0,VALID,25.4558,VALID,343,VALID,0.659375,
2012-04-24, 02:07:04,VALID,1001.88,VALID,0,VALID,88.8536,VALID,0,VALID,25.4363,VALID,353,VALID,0.227734,
2012-04-24, 02:08:04,VALID,1001.88,VALID,0,VALID,88.8383,VALID,0,VALID,25.4363,VALID,358,VALID,0.549609,
2012-04-24, 02:09:04,VALID,1001.88,VALID,0,VALID,88.8231,VALID,0,VALID,25.4363,VALID,357,VALID,0.535547,
2012-04-24, 02:10:04,VALID,1001.87,VALID,0,VALID,88.8154,VALID,0,VALID,25.4577,VALID,357,VALID,0.284766,
2012-04-24, 02:11:04,VALID,1001.87,VALID,0,VALID,88.7849,VALID,0,VALID,25.4363,VALID,357,VALID,0.345313,
2012-04-24, 02:12:04,VALID,1001.85,VALID,0,VALID,88.7849,VALID,0,VALID,25.4363,VALID,353,VALID,0.452344,
2012-04-24, 02:13:04,VALID,1001.88,VALID,0,VALID,88.8002,VALID,0,VALID,25.4383,VALID,353,VALID,0.352734,
2012-04-24, 02:14:04,VALID,1001.87,VALID,0,VALID,88.8002,VALID,0,VALID,25.4169,VALID,348,VALID,0.591797,
2012-04-24, 02:15:04,VALID,1001.86,VALID,0,VALID,88.8383,VALID,0,VALID,25.4169,VALID,343,VALID,0.708984,
2012-04-24, 02:16:04,VALID,1001.83,VALID,0,VALID,88.7773,VALID,0,VALID,25.376,VALID,344,VALID,0.627344,
2012-04-24, 02:17:04,VALID,1001.86,VALID,0,VALID,88.8307,VALID,0,VALID,25.376,VALID,349,VALID,0.656641,
2012-04-24, 02:18:04,VALID,1001.82,VALID,0,VALID,88.8154,VALID,0,VALID,25.3955,VALID,2,VALID,0.833594,
2012-04-24, 02:19:04,VALID,1001.83,VALID,0,VALID,88.7162,VALID,0,VALID,25.4149,VALID,355,VALID,0.541016,
2012-04-24, 02:20:04,VALID,1001.81,VALID,0,VALID,88.64,VALID,0,VALID,25.4363,VALID,353,VALID,0.758203,
2012-04-24, 02:21:04,VALID,1001.82,VALID,0,VALID,88.5713,VALID,0,VALID,25.4558,VALID,343,VALID,0.736719,
2012-04-24, 02:22:04,VALID,1001.77,VALID,0,VALID,88.434,VALID,0,VALID,25.4753,VALID,345,VALID,0.348047,
2012-04-24, 02:23:04,VALID,1001.79,VALID,0,VALID,88.4569,VALID,0,VALID,25.4558,VALID,360,VALID,0.559375,
2012-04-24, 02:24:04,VALID,1001.77,VALID,0,VALID,88.5179,VALID,0,VALID,25.4344,VALID,2,VALID,0.511719,
2012-04-24, 02:25:04,VALID,1001.75,VALID,0,VALID,88.556,VALID,0,VALID,25.4344,VALID,2,VALID,0.307813,
2012-04-24, 02:26:04,VALID,1001.75,VALID,0,VALID,88.64,VALID,0,VALID,25.4363,VALID,2,VALID,0.567578,
2012-04-24, 02:27:04,VALID,1001.76,VALID,0,VALID,88.6171,VALID,0,VALID,25.4363,VALID,8,VALID,0.414453,
2012-04-24, 02:28:04,VALID,1001.72,VALID,0,VALID,88.64,VALID,0,VALID,25.3955,VALID,10,VALID,0.184766,
2012-04-24, 02:29:04,VALID,1001.7,VALID,0,VALID,88.6934,VALID,0,VALID,25.376,VALID,10,VALID,0.181641,
2012-04-24, 02:30:04,VALID,1001.7,VALID,0,VALID,88.7849,VALID,0,VALID,25.3779,VALID,7,VALID,0.209766,
2012-04-24, 02:31:04,VALID,1001.71,VALID,0,VALID,88.8002,VALID,0,VALID,25.3565,VALID,7,VALID,0.329688,
2012-04-24, 02:32:04,VALID,1001.7,VALID,0,VALID,88.7849,VALID,0,VALID,25.3779,VALID,344,VALID,0.703125,
2012-04-24, 02:33:04,VALID,1001.67,VALID,0,VALID,88.7468,VALID,0,VALID,25.3565,VALID,359,VALID,0.344531,
2012-04-24, 02:34:04,VALID,1001.66,VALID,0,VALID,88.7468,VALID,0,VALID,25.3779,VALID,354,VALID,0.149219,
2012-04-24, 02:35:04,VALID,1001.66,VALID,0,VALID,88.7544,VALID,0,VALID,25.3565,VALID,356,VALID,0.690625,
2012-04-24, 02:36:04,VALID,1001.65,VALID,0,VALID,88.7086,VALID,0,VALID,25.3584,VALID,331,VALID,0.763281,
2012-04-24, 02:37:04,VALID,1001.63,VALID,0,VALID,88.6247,VALID,0,VALID,25.3779,VALID,346,VALID,0.318359,
2012-04-24, 02:38:04,VALID,1001.63,VALID,0,VALID,88.5713,VALID,0,VALID,25.3565,VALID,348,VALID,1.09453,
2012-04-24, 02:39:04,VALID,1001.63,VALID,0,VALID,88.4569,VALID,0,VALID,25.376,VALID,349,VALID,0.451953,
2012-04-24, 02:40:04,VALID,1001.65,VALID,0,VALID,88.434,VALID,0,VALID,25.376,VALID,356,VALID,0.734766,
2012-04-24, 02:41:04,VALID,1001.63,VALID,0,VALID,88.3882,VALID,0,VALID,25.3955,VALID,346,VALID,0.938672,
2012-04-24, 02:42:04,VALID,1001.68,VALID,0,VALID,88.2585,VALID,0,VALID,25.3955,VALID,345,VALID,0.725,
2012-04-24, 02:43:04,VALID,1001.67,VALID,0,VALID,88.228,VALID,0,VALID,25.3955,VALID,353,VALID,0.465625,
2012-04-24, 02:44:04,VALID,1001.68,VALID,0,VALID,88.2509,VALID,0,VALID,25.3955,VALID,355,VALID,0.901953,
2012-04-24, 02:45:04,VALID,1001.7,VALID,0,VALID,88.2738,VALID,0,VALID,25.4363,VALID,356,VALID,0.717578,
2012-04-24, 02:46:04,VALID,1001.73,VALID,0,VALID,88.2509,VALID,0,VALID,25.4149,VALID,348,VALID,0.923437,
2012-04-24, 02:47:04,VALID,1001.75,VALID,0,VALID,88.1746,VALID,0,VALID,25.3955,VALID,353,VALID,0.696094,
2012-04-24, 02:48:04,VALID,1001.78,VALID,0,VALID,88.1441,VALID,0,VALID,25.4149,VALID,336,VALID,0.771094,
2012-04-24, 02:49:04,VALID,1001.78,VALID,0,VALID,88.1441,VALID,0,VALID,25.3955,VALID,332,VALID,0.451953,
2012-04-24, 02:50:04,VALID,1001.84,VALID,0,VALID,88.2127,VALID,0,VALID,25.4169,VALID,349,VALID,0.925391,
2012-04-24, 02:51:04,VALID,1001.86,VALID,0,VALID,88.1975,VALID,0,VALID,25.3955,VALID,348,VALID,0.367188,
2012-04-24, 02:52:04,VALID,1001.87,VALID,0,VALID,88.1365,VALID,0,VALID,25.3955,VALID,353,VALID,0.950781,
2012-04-24, 02:53:04,VALID,1001.87,VALID,0,VALID,88.0602,VALID,0,VALID,25.4149,VALID,349,VALID,0.802344,
2012-04-24, 02:54:04,VALID,1001.87,VALID,0,VALID,87.9534,VALID,0,VALID,25.4363,VALID,337,VALID,0.791797,
2012-04-24, 02:55:04,VALID,1001.87,VALID,0,VALID,87.8618,VALID,0,VALID,25.4558,VALID,344,VALID,0.157422,
2012-04-24, 02:56:04,VALID,1001.88,VALID,0,VALID,87.9381,VALID,0,VALID,25.4558,VALID,344,VALID,0.355078,
2012-04-24, 02:57:04,VALID,1001.91,VALID,0,VALID,87.9076,VALID,0,VALID,25.4344,VALID,350,VALID,0.839063,
2012-04-24, 02:58:04,VALID,1001.92,VALID,0,VALID,87.8618,VALID,0,VALID,25.4344,VALID,341,VALID,0.0109375,
2012-04-24, 02:59:04,VALID,1001.9,VALID,0,VALID,87.9305,VALID,0,VALID,25.4363,VALID,341,VALID,0.131641,
2012-04-24, 03:00:04,VALID,1001.91,VALID,0,VALID,88.0144,VALID,0,VALID,25.3955,VALID,341,VALID,0.101172,
2012-04-24, 03:01:04,VALID,1001.94,VALID,0,VALID,88.0678,VALID,0,VALID,25.3974,VALID,341,VALID,0.276563,
2012-04-24, 03:02:04,VALID,1001.96,VALID,0,VALID,88.1517,VALID,0,VALID,25.3565,VALID,285,VALID,0.0597656,
2012-04-24, 03:03:04,VALID,1001.95,VALID,0,VALID,88.2051,VALID,0,VALID,25.3565,VALID,313,VALID,0.51875,
2012-04-24, 03:04:04,VALID,1001.93,VALID,0,VALID,88.2585,VALID,0,VALID,25.337,VALID,349,VALID,0.714844,
2012-04-24, 03:05:04,VALID,1001.93,VALID,0,VALID,88.2433,VALID,0,VALID,25.3779,VALID,353,VALID,0.616406,
2012-04-24, 03:06:04,VALID,1001.9,VALID,0,VALID,88.167,VALID,0,VALID,25.3565,VALID,346,VALID,0.620313,
2012-04-24, 03:07:04,VALID,1001.88,VALID,0,VALID,88.0754,VALID,0,VALID,25.376,VALID,329,VALID,0.383984,
2012-04-24, 03:08:04,VALID,1001.88,VALID,0,VALID,88.0831,VALID,0,VALID,25.376,VALID,268,VALID,0.0515625,
2012-04-24, 03:09:04,VALID,1001.84,VALID,0,VALID,88.1517,VALID,0,VALID,25.337,VALID,277,VALID,0.0269531,
2012-04-24, 03:10:04,VALID,1001.83,VALID,0,VALID,88.2967,VALID,0,VALID,25.3779,VALID,351,VALID,0.740234,
2012-04-24, 03:11:04,VALID,1001.81,VALID,0,VALID,88.2204,VALID,0,VALID,25.376,VALID,339,VALID,0.476953,
2012-04-24, 03:12:04,VALID,1001.83,VALID,0,VALID,88.1517,VALID,0,VALID,25.376,VALID,339,VALID,0.674609,
2012-04-24, 03:13:04,VALID,1001.83,VALID,0,VALID,88.1059,VALID,0,VALID,25.3974,VALID,345,VALID,0.764063,
2012-04-24, 03:14:04,VALID,1001.85,VALID,0,VALID,88.0754,VALID,0,VALID,25.376,VALID,344,VALID,0.426562,
2012-04-24, 03:15:04,VALID,1001.86,VALID,0,VALID,88.0907,VALID,0,VALID,25.376,VALID,348,VALID,0.377734,
2012-04-24, 03:16:04,VALID,1001.86,VALID,0,VALID,88.1365,VALID,0,VALID,25.3974,VALID,347,VALID,0.270312,
2012-04-24, 03:17:04,VALID,1001.88,VALID,0,VALID,88.167,VALID,0,VALID,25.3565,VALID,347,VALID,0.160938,
2012-04-24, 03:18:04,VALID,1001.89,VALID,0,VALID,88.2356,VALID,0,VALID,25.3565,VALID,347,VALID,0.352734,
2012-04-24, 03:19:04,VALID,1001.91,VALID,0,VALID,88.2585,VALID,0,VALID,25.337,VALID,297,VALID,0.477734,
2012-04-24, 03:20:04,VALID,1001.89,VALID,0,VALID,88.1975,VALID,0,VALID,25.337,VALID,298,VALID,0.0902344,
2012-04-24, 03:21:04,VALID,1001.9,VALID,0,VALID,88.2509,VALID,0,VALID,25.3195,VALID,298,VALID,0,
2012-04-24, 03:22:04,VALID,1001.91,VALID,0,VALID,88.3348,VALID,0,VALID,25.2786,VALID,288,VALID,0.516797,
2012-04-24, 03:23:04,VALID,1001.91,VALID,0,VALID,88.4035,VALID,0,VALID,25.2981,VALID,288,VALID,0.0703125,
2012-04-24, 03:24:04,VALID,1001.87,VALID,0,VALID,88.495,VALID,0,VALID,25.2786,VALID,306,VALID,0.415625,
2012-04-24, 03:25:04,VALID,1001.88,VALID,0,VALID,88.5179,VALID,0,VALID,25.3,VALID,320,VALID,0.0367187,
2012-04-24, 03:26:04,VALID,1001.89,VALID,0,VALID,88.4874,VALID,0,VALID,25.2592,VALID,279,VALID,0.300391,
2012-04-24, 03:27:04,VALID,1001.88,VALID,0,VALID,88.5255,VALID,0,VALID,25.2397,VALID,279,VALID,0.0234375,
2012-04-24, 03:28:04,VALID,1001.83,VALID,0,VALID,88.6476,VALID,0,VALID,25.2202,VALID,358,VALID,0.602344,
2012-04-24, 03:29:04,VALID,1001.85,VALID,0,VALID,88.7468,VALID,0,VALID,25.2221,VALID,291,VALID,0.409766,
2012-04-24, 03:30:04,VALID,1001.84,VALID,0,VALID,88.8154,VALID,0,VALID,25.2027,VALID,290,VALID,0.261328,
2012-04-24, 03:31:04,VALID,1001.85,VALID,0,VALID,88.8688,VALID,0,VALID,25.1832,VALID,280,VALID,0.251563,
2012-04-24, 03:32:04,VALID,1001.83,VALID,0,VALID,88.9527,VALID,0,VALID,25.1637,VALID,280,VALID,0.00585938,
2012-04-24, 03:33:04,VALID,1001.87,VALID,0,VALID,89.0138,VALID,0,VALID,25.1637,VALID,280,VALID,0,
2012-04-24, 03:34:04,VALID,1001.9,VALID,0,VALID,89.0977,VALID,0,VALID,25.1442,VALID,280,VALID,0,
2012-04-24, 03:35:04,VALID,1001.92,VALID,0,VALID,89.2732,VALID,0,VALID,25.1034,VALID,288,VALID,0.748828,
2012-04-24, 03:36:04,VALID,1001.9,VALID,0,VALID,89.2732,VALID,0,VALID,25.1034,VALID,277,VALID,0.182422,
2012-04-24, 03:37:04,VALID,1001.95,VALID,0,VALID,89.3266,VALID,0,VALID,25.1248,VALID,277,VALID,0.0765625,
2012-04-24, 03:38:04,VALID,1001.93,VALID,0,VALID,89.38,VALID,0,VALID,25.0858,VALID,277,VALID,0,
2012-04-24, 03:39:04,VALID,1001.93,VALID,0,VALID,89.441,VALID,0,VALID,25.0858,VALID,277,VALID,0,
2012-04-24, 03:40:04,VALID,1001.97,VALID,0,VALID,89.5402,VALID,0,VALID,25.045,VALID,277,VALID,0,
2012-04-24, 03:41:04,VALID,1001.98,VALID,0,VALID,89.5859,VALID,0,VALID,25.045,VALID,296,VALID,0.464063,
2012-04-24, 03:42:04,VALID,1001.98,VALID,0,VALID,89.6088,VALID,0,VALID,25.0663,VALID,324,VALID,0,
2012-04-24, 03:43:04,VALID,1001.98,VALID,0,VALID,89.7538,VALID,0,VALID,25.006,VALID,313,VALID,0.269141,
2012-04-24, 03:44:04,VALID,1002,VALID,0,VALID,89.8606,VALID,0,VALID,25.0274,VALID,289,VALID,0.581641,